When you browse on this site, cookies collect data to enhance your experience and personalize the content and advertising you see.
Visit our Privacy Policy to learn more. By continuing to use the site, you agree to this use of cookies and data.

Meteo orario Novograd-Volynski

Oggi, 29 Settembre, Martedi

Tempo Temperatura Precipitazioni Vento Pressione Umidità
00:00 +13°C° 0 mm 5 m/s 742 mm Hg 59%
01:00 +13°C° 0 mm 5 m/s 742 mm Hg 59%
02:00 +13°C° 0 mm 5 m/s 742 mm Hg 59%
03:00 +13°C° 0 mm 5 m/s 742 mm Hg 62%
04:00 +12°C° 0 mm 4 m/s 741 mm Hg 64%
05:00 +12°C° 0 mm 4 m/s 741 mm Hg 67%
06:00 +12°C° 0 mm 4 m/s 741 mm Hg 67%
07:00 +13°C° 0 mm 4 m/s 741 mm Hg 67%
08:00 +13°C° 0 mm 4 m/s 740 mm Hg 66%
09:00 +14°C° 0 mm 3 m/s 740 mm Hg 67%
10:00 +14°C° 0 mm 3 m/s 740 mm Hg 67%
11:00 +14°C° 0 mm 3 m/s 740 mm Hg 68%
12:00 +16°C° 0 mm 3 m/s 739 mm Hg 67%
13:00 +17°C° 0 mm 4 m/s 739 mm Hg 66%
14:00 +17°C° 0 mm 4 m/s 739 mm Hg 66%
15:00 +17°C° 0.2 mm 3 m/s 738 mm Hg 70%
16:00 +16°C° 0.2 mm 3 m/s 738 mm Hg 75%
17:00 +16°C° 0.2 mm 2 m/s 738 mm Hg 80%
18:00 +14°C° 2.2 mm 3 m/s 737 mm Hg 84%
19:00 +14°C° 2.2 mm 4 m/s 737 mm Hg 88%
20:00 +14°C° 2.2 mm 5 m/s 737 mm Hg 92%
21:00 +14°C° 0.7 mm 5 m/s 736 mm Hg 92%
22:00 +14°C° 0.7 mm 6 m/s 736 mm Hg 92%
23:00 +14°C° 0.7 mm 6 m/s 735 mm Hg 92%

Domani, 30 Settembre, Mercoledi

Tempo Temperatura Precipitazioni Vento Pressione Umidità
00:00 +13°C° 0.4 mm 6 m/s 735 mm Hg 91%
01:00 +13°C° 0.4 mm 6 m/s 735 mm Hg 90%
02:00 +13°C° 0.4 mm 6 m/s 734 mm Hg 89%
03:00 +13°C° 0.8 mm 6 m/s 734 mm Hg 88%
04:00 +13°C° 0.8 mm 6 m/s 733 mm Hg 87%
05:00 +13°C° 0.8 mm 6 m/s 733 mm Hg 86%
06:00 +13°C° 1 mm 6 m/s 733 mm Hg 86%
07:00 +11°C° 1 mm 6 m/s 733 mm Hg 86%
08:00 +11°C° 1 mm 7 m/s 733 mm Hg 85%
09:00 +11°C° 0.7 mm 7 m/s 733 mm Hg 87%
10:00 +11°C° 0.7 mm 7 m/s 733 mm Hg 89%
11:00 +11°C° 0.7 mm 7 m/s 733 mm Hg 90%
12:00 +11°C° 0.6 mm 7 m/s 733 mm Hg 91%
13:00 +11°C° 0.6 mm 7 m/s 733 mm Hg 91%
14:00 +11°C° 0.6 mm 7 m/s 733 mm Hg 92%
15:00 +11°C° 0.1 mm 7 m/s 733 mm Hg 92%
16:00 +12°C° 0.1 mm 7 m/s 733 mm Hg 91%
17:00 +13°C° 0.1 mm 6 m/s 734 mm Hg 91%
18:00 +13°C° 0 mm 6 m/s 734 mm Hg 92%
19:00 +11°C° 0 mm 6 m/s 734 mm Hg 93%
20:00 +12°C° 0 mm 5 m/s 735 mm Hg 93%
21:00 +12°C° 0 mm 5 m/s 735 mm Hg 93%
22:00 +12°C° 0 mm 5 m/s 734 mm Hg 93%
23:00 +12°C° 0 mm 4 m/s 734 mm Hg 93%

Dopodomani, 1 Ottobre, Giovedi

Tempo Temperatura Precipitazioni Vento Pressione Umidità
00:00 +12°C° 0.5 mm 4 m/s 734 mm Hg 94%
01:00 +12°C° 0.5 mm 4 m/s 734 mm Hg 95%
02:00 +12°C° 0.5 mm 3 m/s 734 mm Hg 96%
03:00 +12°C° 0.6 mm 3 m/s 734 mm Hg 96%
04:00 +12°C° 0.6 mm 3 m/s 734 mm Hg 97%
05:00 +12°C° 0.6 mm 3 m/s 734 mm Hg 97%
06:00 +12°C° 0.1 mm 4 m/s 734 mm Hg 94%
07:00 +12°C° 0.1 mm 4 m/s 734 mm Hg 92%
08:00 +13°C° 0.1 mm 5 m/s 735 mm Hg 89%
09:00 +14°C° 0.2 mm 5 m/s 735 mm Hg 83%
10:00 +15°C° 0.2 mm 6 m/s 735 mm Hg 77%
11:00 +16°C° 0.2 mm 6 m/s 736 mm Hg 71%
12:00 +16°C° 0.6 mm 6 m/s 736 mm Hg 72%
13:00 +16°C° 0.6 mm 6 m/s 736 mm Hg 72%
14:00 +16°C° 0.6 mm 5 m/s 736 mm Hg 73%
15:00 +15°C° 0.5 mm 4 m/s 736 mm Hg 76%
16:00 +15°C° 0.5 mm 4 m/s 736 mm Hg 78%
17:00 +14°C° 0.5 mm 3 m/s 736 mm Hg 81%
18:00 +14°C° 0.1 mm 3 m/s 736 mm Hg 84%
19:00 +13°C° 0.1 mm 3 m/s 736 mm Hg 87%
20:00 +12°C° 0.1 mm 3 m/s 737 mm Hg 91%
21:00 +12°C° 0 mm 3 m/s 736 mm Hg 92%
22:00 +12°C° 0 mm 3 m/s 736 mm Hg 94%
23:00 +12°C° 0 mm 3 m/s 736 mm Hg 95%

2 Ottobre, Venerdi

Tempo Temperatura Precipitazioni Vento Pressione Umidità
00:00 +11°C° 0 mm 3 m/s 736 mm Hg 96%
01:00 +11°C° 0 mm 3 m/s 736 mm Hg 96%
02:00 +11°C° 0 mm 3 m/s 736 mm Hg 96%
03:00 +11°C° 0.1 mm 3 m/s 736 mm Hg 96%
04:00 +12°C° 0.1 mm 4 m/s 736 mm Hg 96%
05:00 +12°C° 0.1 mm 4 m/s 736 mm Hg 95%
06:00 +12°C° 0 mm 4 m/s 736 mm Hg 94%
07:00 +12°C° 0 mm 4 m/s 737 mm Hg 94%
08:00 +12°C° 0 mm 4 m/s 737 mm Hg 93%
09:00 +13°C° 0.1 mm 4 m/s 737 mm Hg 90%
10:00 +13°C° 0.1 mm 4 m/s 737 mm Hg 87%
11:00 +14°C° 0.1 mm 3 m/s 738 mm Hg 85%
12:00 +15°C° 0.4 mm 4 m/s 738 mm Hg 81%
13:00 +15°C° 0.4 mm 5 m/s 738 mm Hg 77%
14:00 +16°C° 0.4 mm 5 m/s 738 mm Hg 73%
15:00 +15°C° 0.1 mm 5 m/s 738 mm Hg 78%
16:00 +14°C° 0.1 mm 4 m/s 738 mm Hg 82%
17:00 +13°C° 0.1 mm 3 m/s 738 mm Hg 87%
18:00 +12°C° 0 mm 3 m/s 739 mm Hg 90%
19:00 +12°C° 0 mm 3 m/s 739 mm Hg 93%
20:00 +11°C° 0 mm 3 m/s 739 mm Hg 96%
21:00 +12°C° 0 mm 2 m/s 740 mm Hg 96%
22:00 +10°C° 0 mm 2 m/s 740 mm Hg 96%
23:00 +10°C° 0 mm 2 m/s 740 mm Hg 97%

3 Ottobre, Sabato

Tempo Temperatura Precipitazioni Vento Pressione Umidità
00:00 +10°C° 0 mm 2 m/s 740 mm Hg 97%
01:00 +10°C° 0 mm 2 m/s 740 mm Hg 97%
02:00 +10°C° 0 mm 1 m/s 740 mm Hg 98%
03:00 +11°C° 0 mm 1 m/s 740 mm Hg 97%
04:00 +11°C° 0 mm 1 m/s 740 mm Hg 97%
05:00 +11°C° 0 mm 1 m/s 740 mm Hg 96%
06:00 +11°C° 0 mm 1 m/s 740 mm Hg 95%
07:00 +12°C° 0 mm 2 m/s 740 mm Hg 93%
08:00 +12°C° 0 mm 2 m/s 741 mm Hg 91%
09:00 +14°C° 0 mm 2 m/s 741 mm Hg 85%
10:00 +15°C° 0 mm 2 m/s 741 mm Hg 78%
11:00 +17°C° 0 mm 2 m/s 741 mm Hg 72%
12:00 +18°C° 0 mm 2 m/s 741 mm Hg 68%
13:00 +18°C° 0 mm 2 m/s 741 mm Hg 65%
14:00 +19°C° 0 mm 2 m/s 741 mm Hg 61%
15:00 +18°C° 0 mm 2 m/s 741 mm Hg 65%
16:00 +18°C° 0 mm 2 m/s 740 mm Hg 69%
17:00 +17°C° 0 mm 2 m/s 740 mm Hg 72%
18:00 +16°C° 0 mm 3 m/s 740 mm Hg 74%
19:00 +16°C° 0 mm 3 m/s 740 mm Hg 76%
20:00 +14°C° 0 mm 3 m/s 741 mm Hg 78%
21:00 +14°C° 0 mm 3 m/s 740 mm Hg 80%
22:00 +13°C° 0 mm 3 m/s 740 mm Hg 82%
23:00 +13°C° 0 mm 3 m/s 740 mm Hg 84%

4 Ottobre, Domenica

Tempo Temperatura Precipitazioni Vento Pressione Umidità
00:00 +13°C° 0 mm 3 m/s 740 mm Hg 80%
01:00 +14°C° 0 mm 3 m/s 740 mm Hg 77%
02:00 +14°C° 0 mm 3 m/s 740 mm Hg 73%
03:00 +14°C° 0 mm 3 m/s 740 mm Hg 73%
04:00 +14°C° 0 mm 3 m/s 739 mm Hg 72%
05:00 +14°C° 0 mm 3 m/s 739 mm Hg 72%
06:00 +14°C° 0 mm 3 m/s 739 mm Hg 72%
07:00 +16°C° 0 mm 3 m/s 739 mm Hg 72%
08:00 +16°C° 0 mm 3 m/s 739 mm Hg 72%
09:00 +17°C° 0 mm 4 m/s 740 mm Hg 68%
10:00 +19°C° 0 mm 4 m/s 740 mm Hg 65%
11:00 +20°C° 0 mm 4 m/s 740 mm Hg 61%
12:00 +22°C° 0 mm 4 m/s 740 mm Hg 58%
13:00 +23°C° 0 mm 4 m/s 739 mm Hg 55%
14:00 +25°C° 0 mm 4 m/s 739 mm Hg 52%
15:00 +23°C° 0 mm 4 m/s 739 mm Hg 56%
16:00 +22°C° 0 mm 3 m/s 739 mm Hg 61%
17:00 +22°C° 0 mm 3 m/s 739 mm Hg 65%
18:00 +20°C° 0 mm 3 m/s 739 mm Hg 68%
19:00 +19°C° 0 mm 3 m/s 739 mm Hg 71%
20:00 +18°C° 0 mm 3 m/s 739 mm Hg 73%
21:00 +18°C° 0 mm 3 m/s 739 mm Hg 73%
22:00 +18°C° 0 mm 3 m/s 739 mm Hg 72%
23:00 +18°C° 0 mm 3 m/s 739 mm Hg 72%
Mostrare altro